User: anonymous   Login
Location: Le Petit-Vavre
(46.5081°N, 1.5239°E)
Time: 14:53:27
(UTC+00:00)
Language:

Cosmos 1943 Rocket - Orbit

View from above orbital plane
View from above orbital plane
View from above satellite
View from above satellite

Ground track
Ground track

The orbit data is extracted from the following two-line orbital elements,

1 19120U 88039B   21138.11988915 -.00000204  00000-0 -74445-4 0  9994
2 19120  71.0140 181.3539 0021075 159.7993 200.3971 14.19223211709404
Epoch (UTC): 18 May 2021 02:52:38
Eccentricity: 0.0021075
inclination: 71.0140°
perigee height: 813 km
apogee height: 843 km
right ascension of ascending node: 181.3539°
argument of perigee: 159.7993°
revolutions per day: 14.19223211
mean anomaly at epoch: 200.3971°
orbit number at epoch: 70940

The dashed part of the orbit path shows where the satellite is in the earth's shadow,  

DLR